Marfa, TX

11:19 AM CST on February 20, 2017 (GMT -0600)
Marfa Municipal

Weather History for KMRF - December, 2013

Change the Weather History Date:

Monday, December 16, 2013

  Actual Average Record
Temperature  
Mean Temperature 40 °F -  
Max Temperature 60 °F 54 °F 71 °F (2006)
Min Temperature 19 °F 22 °F 6 °F (2007)
Degree Days  
Heating Degree Days 26    
Moisture  
Dew Point 18 °F    
Average Humidity 46    
Maximum Humidity 93    
Minimum Humidity 19    
Precipitation  
Precipitation 0.00 in - - ()
Sea Level Pressure  
Sea Level Pressure 30.29 in    
Wind  
Wind Speed 8 mph (SW)    
Max Wind Speed 22 mph    
Max Gust Speed 28 mph    
Visibility 10 miles    
Events      
Averages and records for this station are not official NWS values.
T = Trace of Precipitation, MM = Missing Value Source: NWS Daily Summary

Daily Weather History Graph

Daily Weather History Graph

Search for Another Location

Airport or City:

Trip Planner

Search our weather history database for the weather conditions in past years. The results will help you decide how hot, cold, wet, or windy it might be!

Date:

Astronomy

Dec. 16, 2013 Rise Set
Actual Time 7:46 AM CST 5:57 PM CST
Civil Twilight 7:19 AM CST 6:24 PM CST
Nautical Twilight 6:49 AM CST 6:54 PM CST
Astronomical Twilight 6:20 AM CST 7:23 PM CST
Moon 5:46 PM CST (12/16) 7:00 AM CST (12/16)
Length of Visible Light 11h 04m
Length of Day
10h 11m
Full, 100% of the Moon is Illuminated
Dec 16
Full
Dec 17
Full
Dec 25
Last Quarter
Jan 1
New
Jan 7
First Quarter

Hourly Weather History & Observations

Time (CST) Temp. Windchill Dew Point Humidity Pressure Visibility Wind Dir Wind Speed Gust Speed Precip Events Conditions
12:15 AM 28.4 °F 20.4 °F 17.6 °F 64% 30.32 in 10.0 mi East 8.1 mph - N/A   Clear
12:35 AM 28.4 °F 22.2 °F 12.2 °F 51% 30.32 in 10.0 mi SE 5.8 mph - N/A   Clear
12:55 AM 28.4 °F 20.4 °F 15.8 °F 59% 30.32 in 10.0 mi SSW 8.1 mph - N/A   Clear
1:15 AM 28.4 °F 22.2 °F 15.8 °F 59% 30.32 in 10.0 mi SSW 5.8 mph - N/A   Clear
1:35 AM 24.8 °F 20.5 °F 15.8 °F 69% 30.31 in 10.0 mi SW 3.5 mph - N/A   Clear
1:55 AM 23.0 °F 17.0 °F 15.8 °F 74% 30.31 in 10.0 mi NNE 4.6 mph - N/A   Clear
2:15 AM 26.6 °F 22.6 °F 17.6 °F 69% 30.31 in 10.0 mi North 3.5 mph - N/A   Clear
2:35 AM 26.6 °F 20.0 °F 15.8 °F 64% 30.30 in 10.0 mi WNW 5.8 mph - N/A   Clear
2:55 AM 26.6 °F 21.2 °F 17.6 °F 69% 30.31 in 10.0 mi West 4.6 mph - N/A   Clear
3:15 AM 28.4 °F 23.3 °F 15.8 °F 59% 30.30 in 10.0 mi WSW 4.6 mph - N/A   Clear
3:35 AM 28.4 °F 24.6 °F 15.8 °F 59% 30.30 in 10.0 mi SW 3.5 mph - N/A   Clear
3:55 AM 24.8 °F - 12.2 °F 59% 30.29 in 10.0 mi Calm Calm - N/A   Clear
4:15 AM 24.8 °F 20.5 °F 12.2 °F 59% 30.29 in 10.0 mi South 3.5 mph - N/A   Clear
4:35 AM 28.4 °F 22.2 °F 19.4 °F 69% 30.29 in 10.0 mi South 5.8 mph - N/A   Clear
4:55 AM 30.2 °F 25.4 °F 21.2 °F 69% 30.28 in 10.0 mi South 4.6 mph - N/A   Clear
5:15 AM 30.2 °F 23.4 °F 17.6 °F 60% 30.28 in 10.0 mi SSW 6.9 mph - N/A   Clear
5:35 AM 30.2 °F 24.3 °F 17.6 °F 60% 30.28 in 10.0 mi SSW 5.8 mph - N/A   Clear
5:55 AM 26.6 °F 21.2 °F 19.4 °F 74% 30.28 in 10.0 mi SSE 4.6 mph - N/A   Clear
6:15 AM 26.6 °F 21.2 °F 17.6 °F 69% 30.27 in 10.0 mi SSE 4.6 mph - N/A   Clear
6:35 AM 24.8 °F 16.1 °F 17.6 °F 74% 30.28 in 10.0 mi SE 8.1 mph - N/A   Clear
6:55 AM 24.8 °F 20.5 °F 17.6 °F 74% 30.28 in 10.0 mi SE 3.5 mph - N/A   Clear
7:15 AM 21.2 °F 13.6 °F 15.8 °F 80% 30.29 in 10.0 mi East 5.8 mph - N/A   Clear
7:35 AM 19.4 °F 12.8 °F 17.6 °F 93% 30.29 in 10.0 mi ESE 4.6 mph - N/A   Clear
7:55 AM 21.2 °F 13.6 °F 15.8 °F 80% 30.30 in 10.0 mi ENE 5.8 mph - N/A   Clear
8:15 AM 24.8 °F 19.1 °F 19.4 °F 80% 30.31 in 10.0 mi ESE 4.6 mph - N/A   Clear
8:35 AM 26.6 °F 21.2 °F 19.4 °F 74% 30.31 in 10.0 mi ESE 4.6 mph - N/A   Clear
8:55 AM 30.2 °F 26.7 °F 19.4 °F 64% 30.32 in 10.0 mi SE 3.5 mph - N/A   Clear
9:15 AM 33.8 °F - 21.2 °F 60% 30.33 in 10.0 mi Calm Calm - N/A   Clear
9:35 AM 35.6 °F - 21.2 °F 56% 30.33 in 10.0 mi Calm Calm - N/A   Clear
9:55 AM 39.2 °F 37.0 °F 21.2 °F 49% 30.34 in 10.0 mi SSE 3.5 mph - N/A   Clear
10:15 AM 44.6 °F 39.2 °F 21.2 °F 39% 30.34 in 10.0 mi North 10.4 mph 20.7 mph N/A   Clear
10:35 AM 51.8 °F - 19.4 °F 28% 30.35 in 10.0 mi SW 12.7 mph - N/A   Clear
10:55 AM 53.6 °F - 19.4 °F 26% 30.35 in 10.0 mi SW 13.8 mph - N/A   Clear
11:15 AM 53.6 °F - 19.4 °F 26% 30.35 in 10.0 mi WSW 12.7 mph - N/A   Clear
11:35 AM 55.4 °F - 19.4 °F 25% 30.34 in 10.0 mi West 15.0 mph - N/A   Clear
11:55 AM 57.2 °F - 19.4 °F 23% 30.33 in 10.0 mi West 15.0 mph 18.4 mph N/A   Clear
12:15 PM 57.2 °F - 19.4 °F 23% 30.32 in 10.0 mi WSW 18.4 mph 23.0 mph N/A   Clear
12:35 PM 59.0 °F - 19.4 °F 22% 30.31 in 10.0 mi West 20.7 mph 25.3 mph N/A   Clear
12:55 PM 59.0 °F - 19.4 °F 22% 30.30 in 10.0 mi West 18.4 mph 26.5 mph N/A   Clear
1:15 PM 60.8 °F - 19.4 °F 20% 30.29 in 10.0 mi West 21.9 mph 26.5 mph N/A   Clear
1:35 PM 60.8 °F - 19.4 °F 20% 30.28 in 10.0 mi West 21.9 mph 27.6 mph N/A   Clear
1:55 PM 60.8 °F - 17.6 °F 19% 30.28 in 10.0 mi West 20.7 mph 27.6 mph N/A   Clear
2:15 PM 60.8 °F - 19.4 °F 20% 30.27 in 10.0 mi West 19.6 mph 25.3 mph N/A   Clear
2:35 PM 60.8 °F - 19.4 °F 20% 30.26 in 10.0 mi West 21.9 mph 27.6 mph N/A   Clear
2:55 PM 60.8 °F - 19.4 °F 20% 30.26 in 10.0 mi West 17.3 mph 25.3 mph N/A   Clear
3:15 PM 60.8 °F - 19.4 °F 20% 30.26 in 10.0 mi West 17.3 mph 25.3 mph N/A   Clear
3:35 PM 60.8 °F - 17.6 °F 19% 30.26 in 10.0 mi West 18.4 mph 25.3 mph N/A   Clear
3:55 PM 60.8 °F - 17.6 °F 19% 30.26 in 10.0 mi West 17.3 mph - N/A   Clear
4:15 PM 60.8 °F - 17.6 °F 19% 30.26 in 10.0 mi West 13.8 mph 23.0 mph N/A   Clear
4:35 PM 59.0 °F - 17.6 °F 20% 30.26 in 10.0 mi West 13.8 mph - N/A   Clear
4:55 PM 57.2 °F - 17.6 °F 21% 30.27 in 10.0 mi West 13.8 mph 17.3 mph N/A   Clear
5:15 PM 55.4 °F - 17.6 °F 23% 30.26 in 10.0 mi West 11.5 mph - N/A   Clear
5:35 PM 53.6 °F - 17.6 °F 24% 30.26 in 10.0 mi West 10.4 mph - N/A   Clear
5:55 PM 51.8 °F - 17.6 °F 26% 30.26 in 10.0 mi WSW 10.4 mph - N/A   Clear
6:15 PM 48.2 °F - 17.6 °F 30% 30.26 in 10.0 mi West 10.4 mph - N/A   Clear
6:35 PM 48.2 °F - 17.6 °F 30% 30.26 in 10.0 mi West 11.5 mph - N/A   Clear
6:55 PM 48.2 °F - 17.6 °F 30% 30.26 in 10.0 mi West 5.8 mph - N/A   Clear
7:15 PM 44.6 °F - 17.6 °F 34% 30.27 in 10.0 mi Calm Calm - N/A   Clear
7:35 PM 46.4 °F 45.2 °F 19.4 °F 34% 30.27 in 10.0 mi West 3.5 mph - N/A   Clear
7:55 PM 44.6 °F - 19.4 °F 37% 30.27 in 10.0 mi Calm Calm - N/A   Clear
8:15 PM 44.6 °F 41.4 °F 19.4 °F 37% 30.28 in 10.0 mi NW 5.8 mph - N/A   Clear
8:35 PM 39.2 °F 37.0 °F 15.8 °F 39% 30.28 in 10.0 mi ENE 3.5 mph - N/A   Clear
8:55 PM 32.0 °F 28.7 °F 15.8 °F 51% 30.28 in 10.0 mi SSE 3.5 mph - N/A   Clear
9:15 PM 32.0 °F 27.5 °F 14.0 °F 48% 30.29 in 10.0 mi ESE 4.6 mph - N/A   Clear
9:35 PM 32.0 °F 26.4 °F 14.0 °F 48% 30.30 in 10.0 mi East 5.8 mph - N/A   Clear
9:55 PM 30.2 °F 24.3 °F 15.8 °F 55% 30.30 in 10.0 mi East 5.8 mph - N/A   Clear
10:15 PM 30.2 °F 24.3 °F 15.8 °F 55% 30.31 in 10.0 mi ENE 5.8 mph - N/A   Clear
10:35 PM 30.2 °F 25.4 °F 14.0 °F 51% 30.31 in 10.0 mi North 4.6 mph - N/A   Clear
10:55 PM 30.2 °F - 15.8 °F 55% 30.31 in 10.0 mi Calm Calm - N/A   Clear
11:15 PM 28.4 °F 23.3 °F 15.8 °F 59% 30.31 in 10.0 mi East 4.6 mph - N/A   Clear
11:55 PM 26.6 °F 21.2 °F 10.4 °F 51% 30.31 in 10.0 mi NNE 4.6 mph - N/A   Clear